Simultaneous Nadir Overpasses (SNOs) Predictions

Prediction of SNOs between GOES-15 and LANDSAT-8 Satellite Orbit:

Table of predicted SNOs for the next 14.0 days since TLE Epoch: 12/24/2022
Index Date Time (GOES-15) GOES-15 Lat,Lon LANDSAT-8 Lat,Lon Distance(km) Time Diff (sec)
1 12/25/2022 18:33:36 -0.08,-127.49 -0.63,-124.97 286.86 80
2 12/26/2022 06:55:00 0.07,-127.57 -0.49,-130.16 293.83 80
3 12/28/2022 06:40:09 0.06,-127.64 0.13,-127.20 49.76 80
4 12/30/2022 06:27:58 0.06,-127.71 0.79,-124.25 393.38 80
5 12/30/2022 18:51:53 -0.06,-127.66 0.34,-129.40 198.83 80
6 01/01/2023 18:39:42 -0.06,-127.73 -0.34,-126.46 144.70 80
7 01/02/2023 07:01:06 0.05,-127.82 -0.77,-131.65 435.45 80
8 01/03/2023 18:27:30 -0.05,-127.79 -0.98,-123.50 487.79 80
9 01/04/2023 06:48:54 0.05,-127.88 -0.12,-128.69 92.53 80
10 01/06/2023 06:34:01 0.05,-127.93 0.49,-125.73 250.05 80
11 01/06/2023 18:55:16 -0.04,-127.87 0.62,-130.88 343.08 80
